Вернуться в каталог

THOR BURNER 2 R/B

АктивенPO
NORAD 2877·ROCKET BODY·🇺🇸 United States

Запущен Jun 29, 1967 с Vandenberg Space Force Base

Loading…

Ближайшие Пролёты (ближайшие 24 часа)

TLE

СвежийSource: Space-Track

Эпоха: Sep 13, 2026, 13:38 UTC

1  2877U 67065C   26256.56864058  .00000000  00000-0 -71583-3 0  9999
2  2877  89.9788 313.5300 0063244  11.6203 348.6078  8.36607877808376

Отслеживайте THOR BURNER 2 R/B в реальном времени с AllMySat

Download on the App Store